Location: Constantia
(34.0183°S, 18.4411°E)
Time: 10:49:22
(UTC+00:00)

Exosat Rocket - Pass Details

Date: 17 February 2020
Orbit: 759 x 2516 km, 72.3° (Epoch: 04 April)

Event Time Altitude Azimuth Distance (km) Brightness Sun altitude
Rises 02:49:26 0° 196° (SSW) 3,601 7.2 -18.6°
Reaches altitude 10° 02:52:08 10° 192° (SSW) 2,510 6.4 -18.2°
Maximum altitude 02:57:30 59° 112° (ESE) 894 4.1 -17.2°
Drops below altitude 10° 03:02:25 10° 32° (NNE) 2,308 6.0 -16.3°
Sets 03:04:49 0° 28° (NNE) 3,284 6.8 -15.8°
